sat.trackr.live / text

‹ back to catalog

HULIANWANG DIGUI-47

NORAD 65050 · 2025-162H

PAYLOAD ACTIVE UNKNOWN

§ Identity

Operator
Country
PRC
Launch date
2025-07-30
Launch site
WSC
Launch vehicle
Mass (kg)
RCS (m²)

External: N2YO · Heavens-Above · Gunter

§ Orbital elements

Epoch: 2026-09-21T13:30:25.215840Z

Period
108.33 min
Inclination
50.0022°
Eccentricity
0.0000736
Mean motion
13.29330400 rev/d
Perigee alt
1,148.7 km
Apogee alt
1,149.8 km
Semi-major
7,527.4 km
B*
1.0192e-4
RAAN
279.8480°
Arg perigee
292.9521°
Mean anomaly
67.1273°
Rev number
5,618

§ Raw data

HULIANWANG DIGUI-471 65050U 25162H   26264.56279185 -.00000077  00000+0  10192-3 0  99952 65050  50.0022 279.8480 0000736 292.9521  67.1273 13.29330400 56182

JSON: /api/v1/satellites/65050 · /tle

For live sub-satellite position, see the globe view (requires WebGL).

§ Visibility from observer

Set your observer location to see the next 7 days of passes ≥ 10°. The values pass through the URL so the page stays shareable.

No JS? Fill the form by hand. The geolocation button needs JavaScript.